Starlink 36103

operational
NORAD ID: 66985 Int'l Des: 2025-288 Owner: SPXS Country: US Constellation: starlink
LEOCIRCULAR

Über Starlink 36103

Beschreibung wird geladen...

Live-Position

3D-Globus wird geladen...

Nächste Überflüge

Höhenverlauf

Altitude vs Time

uPlot chart will show altitude changes over time

Zweizeiliger Elementsatz

1 66985C 25288AC 25346.10743056 -.01095900 00000+0 -17551-2 0 3467
2 66985 43.0041 171.7682 0001807 269.4921 185.6960 16.03696923 10
Epoch: 12. Dez. 2025 • Age: 56 hours

Aktueller Status

Höhe 287.6 km
Geschwindigkeit 7.74 km/s
Subsatellitenpunkt -42.68°S, 140.86°W
Startdatum 8. Dez. 2025
Alter 5 days
Typ internet

Technische Details

Klassifizierung Payload
Masse 575.00 kg
Trockenmasse 530.00 kg
Gesamtmasse 575.00 kg
Länge 0.30 m
Durchmesser 4.10 m
Spannweite 29.00 m
Form Box + pan
Hersteller SPXS
Bus-Typ Starlink V2MO
Phasenstatus In Orbit
Besitzer/Staat SPXS/US

Große Konstellationen

Loading constellations...